This is the latest recevied weather packets stored in our database for station/object SV2BZQ-1. If no packets are shown the sender has not sent any weather packets the latest 1 day(s).
| Time | Temp. | Humidity | Pressure | Rain* | Wind** | Luminosity | Snow |
|---|---|---|---|---|---|---|---|
| 1777969037 | 21.11° C | 50% | 1014.9 hPa | 0 mm | 0 m/s | - | - |
| 1777968902 | 21.11° C | 51% | 1014.9 hPa | 0 mm | 0 m/s | - | - |
| 1777968782 | 20.56° C | 52% | 1015 hPa | 0 mm | 0 m/s | - | - |
| 1777968657 | 20.56° C | 52% | 1015 hPa | 0 mm | 0.45 m/s, 44° | - | - |
| 1777968558 | 20.56° C | 53% | 1015 hPa | 0 mm | 0.45 m/s, 42° | - | - |
| 1777968472 | 20° C | 54% | 1015 hPa | 0 mm | 0.89 m/s, 44° | - | - |
| 1777968276 | 20° C | 54% | 1014.9 hPa | 0 mm | 0.89 m/s, 44° | - | - |
| 1777968151 | 20° C | 54% | 1014.9 hPa | 0 mm | 1.34 m/s, 54° | - | - |
| 1777968040 | 19.44° C | 55% | 1014.9 hPa | 0 mm | 1.34 m/s, 14° | - | - |
| 1777967904 | 19.44° C | 55% | 1015 hPa | 0 mm | 1.34 m/s, 37° | - | - |
| 1777967777 | 19.44° C | 57% | 1015 hPa | 0 mm | 1.34 m/s, 27° | - | - |
| 1777967652 | 19.44° C | 57% | 1015 hPa | 0 mm | 1.34 m/s, 27° | - | - |
| 1777967540 | 19.44° C | 57% | 1015 hPa | 0 mm | 1.34 m/s, 20° | - | - |
| 1777967407 | 18.89° C | 57% | 1015 hPa | 0 mm | 1.79 m/s, 11° | - | - |
| 1777967310 | 18.89° C | 58% | 1015 hPa | 0 mm | 1.34 m/s, 11° | - | - |
| 1777967208 | 18.89° C | 60% | 1015 hPa | 0 mm | 1.34 m/s, 18° | - | - |
| 1777967084 | 18.33° C | 60% | 1015.2 hPa | 0 mm | 0.89 m/s, 0° | - | - |
| 1777966991 | 18.33° C | 61% | 1015.2 hPa | 0 mm | 0.89 m/s, 0° | - | - |
| 1777966870 | 18.33° C | 62% | 1015.2 hPa | 0 mm | 0.45 m/s, 25° | - | - |
| 1777966771 | 18.33° C | 62% | 1015.2 hPa | 0 mm | 0.45 m/s, 23° | - | - |
| 1777966644 | 18.89° C | 61% | 1015.2 hPa | 0 mm | 0.89 m/s, 45° | - | - |
| 1777966553 | 18.89° C | 61% | 1015.2 hPa | 0 mm | 0.89 m/s, 45° | - | - |
| 1777966451 | 18.89° C | 60% | 1015.2 hPa | 0 mm | 1.34 m/s, 52° | - | - |
| 1777966352 | 18.89° C | 59% | 1015.2 hPa | 0 mm | 1.79 m/s, 35° | - | - |
| 1777966274 | 18.89° C | 58% | 1015.3 hPa | 0 mm | 1.79 m/s, 37° | - | - |
* Rain latest hour (hover to see other rain measurements)
** Current wind speed in m/s (hover to see current wind gust speed)